Погода в Новоурусовке

Россия / Астраханская область     46°40′49″N   48°03′41″E
темп.,
°C
ветер,
м/с
пор.,
м/с
влажн.,
%
обл.,
%
осадки,
мм/ч
давл.,
гПа
погр.,
м
16 мая, вс
вс1601:00+22вюв45340 0.0 101667
04:00+21в46380 0.0 101582
07:00+23юв513450 0.0 1015306
10:00+31юв811210 0.0 10151782
13:00+33юв1011160 0.0 10153285
16:00+32вюв1011130 0.0 10142578
19:00+29вюв79160 0.0 1013859
22:00+24в513240 0.0 1013338
17 мая, пн
пн1701:00+22вюв511310 0.0 1012239
04:00+20в612480 0.0 1012187
07:00+23вюв715400 0.0 1012386
10:00+30юв913180 0.0 10131921
13:00+32юв1112120 0.0 10122611
16:00+33юв911123 0.0 10112751
19:00+30вюв710145 0.0 1010788
22:00+24вюв410224 0.0 1011215
18 мая, вт
вт1801:00+22в511320 0.0 1009189
04:00+23в716330 0.0 1008311
07:00+24вюв818330 0.0 1008579
10:00+32юв1015150 0.0 10091906
13:00+33юв1114131 0.0 10092962
16:00+31юв8101796 0.0 10091641
19:00+28юв61023100 0.0 1009572
22:00+27вюв51222100 0.0 1009392
19 мая, ср
ср1901:00+28вюв71218100 0.0 1008355
04:00+22зюз234396 0.0 100862
07:00+22юз346073 0.0 1008165
10:00+27зюз444256 0.0 1008752
13:00+31юз352826 0.0 10081918
16:00+32зюз642587 0.0 10082316
19:00+27зсз10104263 0.2 1010810
22:00+20сз101559100 2.1 1012378
20 мая, чт
чт2001:00+20сз7135145 0.0 1014570
04:00+17сз4105917 0.2 1016389
07:00+18зсз69612 0.2 1018496
10:00+23сз66390 0.2 10181160
13:00+25сз56310 0.0 10181949
16:00+26сз66290 0.0 10172236
19:00+25сз4529100 0.0 10182050
22:00+23сз333496 0.0 101854